• In Österreich
  • Länderverzeichnis
  • Für 7 Tage
  • Wassertemperatur
  • Satellitenkarten
  • Wetterkarte
  • News
  • Widgets
  • user-avatar
    Anmelden

    Stündliche Wetter Kemeri

    Heute, 22 Juli, Sonntag

    Zeit Temperatur Niederschläge Wind Luftdruck Luftfeuchtigkeit
    00:00 +19°C° 0 mm 2 m/S 756 mmHg 94%
    01:00 +18°C° 0 mm 2 m/S 756 mmHg 95%
    02:00 +19°C° 0 mm 1 m/S 756 mmHg 96%
    03:00 +19°C° 0 mm 1 m/S 756 mmHg 96%
    04:00 +19°C° 0 mm 1 m/S 756 mmHg 96%
    05:00 +19°C° 0 mm 1 m/S 756 mmHg 96%
    06:00 +20°C° 0 mm 1 m/S 757 mmHg 88%
    07:00 +22°C° 0 mm 1 m/S 757 mmHg 81%
    08:00 +24°C° 0 mm 1 m/S 757 mmHg 74%
    09:00 +26°C° 0 mm 1 m/S 757 mmHg 68%
    10:00 +27°C° 0 mm 1 m/S 757 mmHg 61%
    11:00 +28°C° 0 mm 1 m/S 757 mmHg 55%
    12:00 +29°C° 0 mm 1 m/S 757 mmHg 52%
    13:00 +30°C° 0 mm 1 m/S 757 mmHg 50%
    14:00 +30°C° 0 mm 2 m/S 757 mmHg 47%
    15:00 +30°C° 0 mm 2 m/S 757 mmHg 50%
    16:00 +29°C° 0 mm 2 m/S 757 mmHg 53%
    17:00 +28°C° 0 mm 3 m/S 757 mmHg 56%
    18:00 +26°C° 0,1 mm 3 m/S 757 mmHg 62%
    19:00 +25°C° 0,1 mm 3 m/S 757 mmHg 69%
    20:00 +22°C° 0,1 mm 3 m/S 757 mmHg 76%
    21:00 +21°C° 0 mm 3 m/S 758 mmHg 78%
    22:00 +19°C° 0 mm 2 m/S 758 mmHg 80%
    23:00 +18°C° 0 mm 2 m/S 758 mmHg 82%

    Morgen, 23 Juli, Montag

    Zeit Temperatur Niederschläge Wind Luftdruck Luftfeuchtigkeit
    00:00 +18°C° 0 mm 2 m/S 758 mmHg 83%
    01:00 +17°C° 0 mm 2 m/S 758 mmHg 83%
    02:00 +17°C° 0 mm 2 m/S 758 mmHg 84%
    03:00 +17°C° 0 mm 2 m/S 758 mmHg 84%
    04:00 +17°C° 0 mm 2 m/S 758 mmHg 85%
    05:00 +17°C° 0 mm 2 m/S 758 mmHg 86%
    06:00 +18°C° 0 mm 2 m/S 758 mmHg 80%
    07:00 +20°C° 0 mm 2 m/S 758 mmHg 75%
    08:00 +23°C° 0 mm 2 m/S 758 mmHg 70%
    09:00 +24°C° 0 mm 2 m/S 758 mmHg 64%
    10:00 +25°C° 0 mm 2 m/S 758 mmHg 58%
    11:00 +27°C° 0 mm 2 m/S 758 mmHg 52%
    12:00 +27°C° 0 mm 2 m/S 758 mmHg 50%
    13:00 +27°C° 0 mm 3 m/S 758 mmHg 48%
    14:00 +28°C° 0 mm 3 m/S 758 mmHg 47%
    15:00 +27°C° 0 mm 3 m/S 758 mmHg 49%
    16:00 +27°C° 0 mm 3 m/S 758 mmHg 51%
    17:00 +26°C° 0 mm 3 m/S 758 mmHg 53%
    18:00 +25°C° 0 mm 3 m/S 758 mmHg 58%
    19:00 +22°C° 0 mm 3 m/S 758 mmHg 64%
    20:00 +21°C° 0 mm 2 m/S 758 mmHg 70%
    21:00 +20°C° 0 mm 2 m/S 759 mmHg 71%
    22:00 +20°C° 0 mm 2 m/S 759 mmHg 72%
    23:00 +19°C° 0 mm 2 m/S 759 mmHg 73%

    übermorgen, 24 Juli, Dienstag

    Zeit Temperatur Niederschläge Wind Luftdruck Luftfeuchtigkeit
    00:00 +19°C° 0 mm 2 m/S 759 mmHg 75%
    01:00 +19°C° 0 mm 2 m/S 759 mmHg 76%
    02:00 +19°C° 0 mm 2 m/S 758 mmHg 78%
    03:00 +19°C° 0 mm 2 m/S 759 mmHg 80%
    04:00 +19°C° 0 mm 2 m/S 759 mmHg 83%
    05:00 +19°C° 0 mm 2 m/S 759 mmHg 85%
    06:00 +20°C° 0,1 mm 2 m/S 759 mmHg 82%
    07:00 +21°C° 0,1 mm 2 m/S 759 mmHg 80%
    08:00 +23°C° 0,1 mm 2 m/S 759 mmHg 78%
    09:00 +24°C° 0,1 mm 2 m/S 759 mmHg 76%
    10:00 +25°C° 0,1 mm 2 m/S 759 mmHg 74%
    11:00 +26°C° 0,1 mm 2 m/S 759 mmHg 71%
    12:00 +26°C° 0,3 mm 3 m/S 759 mmHg 72%
    13:00 +26°C° 0,3 mm 3 m/S 759 mmHg 72%
    14:00 +26°C° 0,3 mm 3 m/S 759 mmHg 73%
    15:00 +25°C° 0,2 mm 3 m/S 759 mmHg 75%
    16:00 +25°C° 0,2 mm 3 m/S 759 mmHg 77%
    17:00 +24°C° 0,2 mm 3 m/S 759 mmHg 78%
    18:00 +24°C° 0 mm 3 m/S 759 mmHg 79%
    19:00 +22°C° 0 mm 3 m/S 759 mmHg 81%
    20:00 +21°C° 0 mm 3 m/S 759 mmHg 82%
    21:00 +20°C° 0 mm 3 m/S 759 mmHg 84%
    22:00 +20°C° 0 mm 2 m/S 759 mmHg 86%
    23:00 +19°C° 0 mm 2 m/S 759 mmHg 88%

    25 Juli, Mittwoch

    Zeit Temperatur Niederschläge Wind Luftdruck Luftfeuchtigkeit
    00:00 +18°C° 0 mm 2 m/S 759 mmHg 90%
    01:00 +18°C° 0 mm 2 m/S 759 mmHg 92%
    02:00 +19°C° 0 mm 1 m/S 759 mmHg 94%
    03:00 +19°C° 0 mm 1 m/S 759 mmHg 94%
    04:00 +18°C° 0 mm 1 m/S 760 mmHg 95%
    05:00 +18°C° 0 mm 1 m/S 760 mmHg 95%
    06:00 +20°C° 0 mm 1 m/S 760 mmHg 89%
    07:00 +22°C° 0 mm 1 m/S 760 mmHg 84%
    08:00 +23°C° 0 mm 2 m/S 760 mmHg 78%
    09:00 +24°C° 0 mm 2 m/S 760 mmHg 73%
    10:00 +26°C° 0 mm 2 m/S 760 mmHg 67%
    11:00 +27°C° 0 mm 2 m/S 760 mmHg 62%
    12:00 +27°C° 0,1 mm 2 m/S 760 mmHg 61%
    13:00 +27°C° 0,1 mm 3 m/S 760 mmHg 60%
    14:00 +28°C° 0,1 mm 3 m/S 759 mmHg 60%
    15:00 +28°C° 0 mm 3 m/S 760 mmHg 61%
    16:00 +27°C° 0 mm 4 m/S 760 mmHg 62%
    17:00 +27°C° 0 mm 4 m/S 760 mmHg 64%
    18:00 +26°C° 0 mm 4 m/S 760 mmHg 69%
    19:00 +25°C° 0 mm 3 m/S 760 mmHg 74%
    20:00 +22°C° 0 mm 3 m/S 760 mmHg 80%
    21:00 +21°C° 0 mm 3 m/S 760 mmHg 83%
    22:00 +20°C° 0 mm 2 m/S 760 mmHg 86%
    23:00 +19°C° 0 mm 2 m/S 760 mmHg 90%

    26 Juli, Donnerstag

    Zeit Temperatur Niederschläge Wind Luftdruck Luftfeuchtigkeit
    00:00 +19°C° 0 mm 2 m/S 761 mmHg 91%
    01:00 +19°C° 0 mm 2 m/S 761 mmHg 93%
    02:00 +20°C° 0 mm 1 m/S 761 mmHg 94%
    03:00 +20°C° 0 mm 1 m/S 761 mmHg 95%
    04:00 +20°C° 0 mm 1 m/S 761 mmHg 96%
    05:00 +19°C° 0 mm 2 m/S 761 mmHg 96%
    06:00 +20°C° 0 mm 2 m/S 761 mmHg 91%
    07:00 +23°C° 0 mm 2 m/S 762 mmHg 85%
    08:00 +25°C° 0 mm 2 m/S 762 mmHg 79%
    09:00 +26°C° 0,1 mm 2 m/S 762 mmHg 76%
    10:00 +27°C° 0,1 mm 2 m/S 762 mmHg 72%
    11:00 +28°C° 0,1 mm 2 m/S 761 mmHg 68%
    12:00 +28°C° 0,3 mm 2 m/S 761 mmHg 68%
    13:00 +28°C° 0,3 mm 3 m/S 761 mmHg 68%
    14:00 +28°C° 0,3 mm 3 m/S 761 mmHg 69%
    15:00 +27°C° 0,2 mm 3 m/S 761 mmHg 70%
    16:00 +27°C° 0,2 mm 3 m/S 761 mmHg 71%
    17:00 +27°C° 0,2 mm 4 m/S 761 mmHg 72%
    18:00 +26°C° 0 mm 3 m/S 761 mmHg 76%
    19:00 +25°C° 0 mm 3 m/S 761 mmHg 80%
    20:00 +24°C° 0 mm 2 m/S 761 mmHg 84%
    21:00 +23°C° 0 mm 2 m/S 761 mmHg 87%
    22:00 +21°C° 0 mm 2 m/S 762 mmHg 90%
    23:00 +20°C° 0 mm 2 m/S 762 mmHg 93%

    27 Juli, Freitag

    Zeit Temperatur Niederschläge Wind Luftdruck Luftfeuchtigkeit
    00:00 +20°C° 0 mm 2 m/S 762 mmHg 94%
    01:00 +20°C° 0 mm 2 m/S 762 mmHg 95%
    02:00 +21°C° 0 mm 1 m/S 762 mmHg 96%
    03:00 +20°C° 0 mm 1 m/S 762 mmHg 96%
    04:00 +20°C° 0 mm 1 m/S 762 mmHg 96%
    05:00 +20°C° 0 mm 1 m/S 762 mmHg 96%
    06:00 +22°C° 0 mm 1 m/S 762 mmHg 91%
    07:00 +23°C° 0 mm 1 m/S 762 mmHg 85%
    08:00 +25°C° 0 mm 1 m/S 762 mmHg 79%
    09:00 +26°C° 0 mm 1 m/S 762 mmHg 73%
    10:00 +28°C° 0 mm 1 m/S 763 mmHg 67%
    11:00 +29°C° 0 mm 2 m/S 763 mmHg 62%
    12:00 +30°C° 0,1 mm 2 m/S 763 mmHg 61%
    13:00 +30°C° 0,1 mm 2 m/S 762 mmHg 60%
    14:00 +31°C° 0,1 mm 2 m/S 762 mmHg 59%
    15:00 +31°C° 0,3 mm 2 m/S 762 mmHg 60%
    16:00 +30°C° 0,3 mm 2 m/S 762 mmHg 61%
    17:00 +30°C° 0,3 mm 2 m/S 762 mmHg 62%
    18:00 +29°C° 0,4 mm 2 m/S 762 mmHg 69%
    19:00 +27°C° 0,4 mm 2 m/S 762 mmHg 75%
    20:00 +26°C° 0,4 mm 3 m/S 762 mmHg 82%
    21:00 +25°C° 0 mm 3 m/S 762 mmHg 84%
    22:00 +24°C° 0 mm 2 m/S 762 mmHg 86%
    23:00 +24°C° 0 mm 2 m/S 762 mmHg 89%
    Mehr zeigen